[[{"header":{"parameterUnit":"m.s-1","parameterCategory":2,"la1":30.2992,"la2":30.254,"lo1":-89.0895,"lo2":-89.0443,"dy":0.0025,"dx":0.0025,"nx":19,"ny":19,"refTime":"2026-04-03T09:00:00:Z","depth":"0","parameterNumber":2,"parameterNumberName":"U-component_of_CURRENTS"},"data":[0,0,0,-0.1538,-0.1542,-0.1708,-0.1708,-0.1808,-0.1809,0,0,0,0,0,0,0,0,0,0,0,-0.1459,-0.146,-0.1537,-0.1542,-0.1708,-0.1708,-0.1808,-0.1809,0,0,0,0,0,0,0,0,0,0,0,-0.1458,-0.1459,-0.1461,-0.1543,-0.1708,-0.1708,-0.1808,-0.1708,0,0,0,0,0,0,0,0,0,0,-0.1559,-0.1509,-0.1459,-0.1461,-0.1544,-0.1707,-0.1708,-0.1704,-0.1714,-0.1705,0,-0.1731,0,-0.1786,-0.1814,-0.1815,0,0,0,-0.1529,-0.1501,-0.155,-0.1461,-0.1545,-0.1707,-0.1629,-0.171,-0.1721,-0.1718,-0.1733,-0.1738,-0.1788,-0.1815,-0.1815,-0.1854,-0.1854,0,0,-0.152,-0.1484,-0.1543,-0.1557,-0.1587,-0.1624,-0.1635,-0.1718,-0.1723,-0.1733,-0.1742,-0.1789,-0.1815,-0.1816,-0.1854,-0.1854,0,0,0,-0.1502,-0.1477,-0.1527,-0.1551,-0.1599,-0.1629,-0.1641,-0.1719,-0.1737,-0.1743,-0.179,-0.1816,-0.1817,-0.1855,-0.1854,-0.1866,0,0,0,-0.1496,-0.1469,-0.1522,-0.1502,-0.1598,-0.1679,-0.164,-0.1731,-0.1743,-0.179,-0.1816,-0.1818,-0.1855,-0.1854,-0.1866,-0.1847,0,0,0,-0.1451,-0.1465,-0.1484,-0.15,-0.1582,-0.1679,-0.1702,-0.1735,-0.1772,-0.1815,-0.1818,-0.1855,-0.1854,-0.1866,-0.1848,-0.177,0,0,0,-0.1408,-0.1497,-0.1483,-0.1593,-0.158,-0.1708,-0.1703,-0.1795,-0.1837,-0.1816,-0.1855,-0.1854,-0.1866,-0.1849,-0.1772,-0.1623,-0.1603,0,0,-0.1511,-0.1508,-0.1577,-0.1571,-0.1696,-0.1684,-0.1775,-0.1823,-0.1817,-0.1818,-0.182,-0.1866,-0.1848,-0.177,-0.16,-0.158,0,0,0,-0.1606,-0.1638,-0.168,-0.1739,-0.1806,-0.1803,-0.1856,-0.1844,-0.1843,-0.1844,-0.1854,-0.1842,-0.1792,-0.1706,-0.1691,-0.1624,-0.1852,-0.1852,-0.1852,-0.1652,-0.17,-0.1781,-0.1825,-0.187,-0.1893,-0.1885,-0.1857,-0.1877,-0.1856,-0.1844,-0.1781,-0.1692,-0.1678,-0.1612,-0.1847,-0.1847,-0.1848,-0.1848,-0.1746,-0.1775,-0.1794,-0.1885,-0.1864,-0.19,-0.188,-0.187,-0.1809,-0.1834,-0.1785,-0.1714,-0.1661,-0.1597,-0.1848,-0.1848,-0.1848,-0.1848,-0.1848,-0.1732,-0.1748,-0.1794,-0.1842,-0.185,-0.1863,-0.1809,-0.1813,-0.1788,-0.1759,-0.161,-0.1608,-0.1552,-0.1721,-0.1721,-0.172,-0.172,-0.172,-0.1719,-0.1672,-0.1724,-0.1726,-0.1785,-0.178,-0.177,-0.1752,-0.17,-0.1606,-0.1579,-0.1577,-0.1505,-0.1741,-0.1746,-0.1713,-0.1714,-0.1715,-0.1716,-0.1716,-0.1637,-0.1631,-0.1639,-0.1636,-0.163,-0.1543,-0.1581,-0.1434,-0.1389,-0.1302,-0.1263,-0.1461,-0.1423,-0.1434,-0.143,-0.1318,-0.1318,-0.1318,-0.1318,-0.1552,-0.1571,-0.1512,-0.1479,-0.1441,-0.142,-0.1216,-0.1142,-0.1064,-0.1009,-0.1065,-0.1079,-0.1098,-0.1044,-0.1064,-0.1054,-0.0849,-0.0848,-0.0848,-0.1466,-0.147,-0.1385,-0.1382,-0.134,-0.1239,-0.1002,-0.0845,-0.079,-0.083,-0.1002,-0.1021,-0.1052,-0.1087,-0.1016,-0.1049,-0.1039,0,0]},{"header":{"parameterUnit":"m.s-1","parameterCategory":2,"la1":30.2992,"la2":30.254,"lo1":-89.0895,"lo2":-89.0443,"dy":0.0025,"dx":0.0025,"nx":19,"ny":19,"refTime":"2026-04-03T09:00:00:Z","depth":"0","parameterNumber":3,"parameterNumberName":"V-component_of_CURRENTS"},"data":[0,0,0,-0.0171,-0.017,-0.0082,-0.0082,0.0171,0.0173,0,0,0,0,0,0,0,0,0,0,0,-0.0195,-0.0195,-0.0171,-0.017,-0.0082,-0.0082,0.017,0.0173,0,0,0,0,0,0,0,0,0,0,0,-0.0195,-0.0195,-0.0195,-0.017,-0.0082,-0.0081,0.017,0.0075,0,0,0,0,0,0,0,0,0,0,-0.0024,-0.0075,-0.0195,-0.0195,-0.0169,-0.0083,-0.0081,0.007,0.0081,0.0162,0,0.0159,0,0.0161,0.019,0.0191,0,0,0,-0.0142,-0.0086,-0.0069,-0.0195,-0.0169,-0.0083,-0.0114,0.0075,0.0089,0.0178,0.0162,0.0171,0.0165,0.0192,0.0193,0.0377,0.0377,0,0,-0.0147,-0.0161,-0.0079,-0.0062,-0.0164,-0.0117,-0.0112,0.0082,0.0097,0.0163,0.0176,0.0169,0.0194,0.0196,0.0377,0.0377,0,0,0,-0.018,-0.0165,-0.0155,-0.0071,-0.0072,-0.0115,-0.0109,0.0088,0.0088,0.0178,0.0172,0.0195,0.0199,0.0377,0.0377,0.0324,0,0,0,-0.0181,-0.0186,-0.0158,-0.0162,-0.0078,-0.001,-0.0107,0.0075,0.0096,0.0171,0.0195,0.0201,0.0377,0.0377,0.0325,0.0299,0,0,0,-0.0196,-0.0187,-0.0185,-0.0164,-0.0141,-0.0015,-0.0002,0.0079,0.0093,0.0192,0.0202,0.0377,0.0377,0.0326,0.0301,0.0311,0,0,0,-0.02,-0.0209,-0.0186,-0.0176,-0.0142,-0.0071,-0.0004,0.0077,0.0157,0.0197,0.0377,0.0377,0.0326,0.0303,0.0312,0.0306,0.0301,0,0,-0.0218,-0.0212,-0.0203,-0.018,-0.0141,-0.008,-0.0007,0.0121,0.0187,0.0328,0.0332,0.0324,0.0301,0.0311,0.0313,0.0307,0,0,0,-0.0211,-0.0212,-0.0189,-0.0161,-0.01,-0.0037,0.007,0.0127,0.0236,0.0228,0.0342,0.0329,0.0337,0.0336,0.0332,0.0437,0.0377,0.0377,0.0377,-0.0255,-0.0221,-0.0204,-0.0156,-0.0101,0.0011,0.0078,0.0174,0.0243,0.027,0.0299,0.0287,0.0285,0.0282,0.039,0.0316,0.0316,0.0316,0.0315,-0.0294,-0.029,-0.023,-0.0211,-0.0128,-0.0059,0.0088,0.0141,0.0247,0.0276,0.0287,0.0296,0.0274,0.0391,0.0312,0.0313,0.0313,0.0314,0.0314,-0.0339,-0.0337,-0.0321,-0.0289,-0.0222,-0.0115,-0.0028,0.0085,0.0185,0.0213,0.024,0.0241,0.0336,0.022,0.022,0.022,0.022,0.022,0.022,-0.0404,-0.0384,-0.04,-0.0361,-0.0335,-0.026,-0.0094,-0.0018,0.0103,0.0187,0.0188,0.0348,0.0258,0.0252,0.0219,0.0219,0.0219,0.0219,0.0219,-0.0463,-0.0466,-0.0487,-0.0482,-0.0418,-0.0357,-0.0217,-0.0054,0.0039,0.0092,0.0309,0.0193,0.0216,0.022,0.0214,0.0173,0.0173,0.0173,0.0173,-0.0512,-0.0513,-0.0541,-0.0535,-0.0495,-0.0391,-0.0268,-0.0071,0.0182,0.0315,0.035,0.0379,0.0376,0.0411,0.0411,0.041,0.042,0.0421,0.0422,-0.0549,-0.0553,-0.0577,-0.0569,-0.0521,-0.0426,-0.0294,-0.0,0.0353,0.0444,0.05,0.0489,0.0544,0.0531,0.0597,0.0589,0.0591,0,0]}],[{"header":{"parameterUnit":"m.s-1","parameterCategory":2,"la1":30.2992,"la2":30.254,"lo1":-89.0895,"lo2":-89.0443,"dy":0.0025,"dx":0.0025,"nx":19,"ny":19,"refTime":"2026-04-03T09:00:00:Z","depth":"2","parameterNumber":2,"parameterNumberName":"U-component_of_CURRENTS"},"data":[0,0,0,-0.1261,-0.1263,-0.1381,-0.1382,-0.1465,-0.1466,0,0,0,0,0,0,0,0,0,0,0,-0.1209,-0.121,-0.126,-0.1263,-0.1381,-0.1382,-0.1465,-0.1466,0,0,0,0,0,0,0,0,0,0,0,-0.1209,-0.121,-0.121,-0.1264,-0.1381,-0.1382,-0.1465,-0.1393,0,0,0,0,0,0,0,0,0,0,-0.1286,-0.1249,-0.1209,-0.121,-0.1265,-0.1381,-0.1382,-0.139,-0.1397,-0.1393,0,-0.1409,0,-0.1443,-0.147,-0.147,0,0,0,-0.1262,-0.1243,-0.1277,-0.1211,-0.1266,-0.1381,-0.1328,-0.1394,-0.1402,-0.1402,-0.141,-0.1414,-0.1445,-0.1471,-0.1471,-0.1521,-0.1521,0,0,-0.1256,-0.123,-0.1271,-0.1282,-0.1292,-0.1324,-0.1332,-0.14,-0.1404,-0.1411,-0.1417,-0.1446,-0.1471,-0.1471,-0.1521,-0.1521,0,0,0,-0.1238,-0.1225,-0.1258,-0.1277,-0.1307,-0.1328,-0.1336,-0.1401,-0.1412,-0.1418,-0.1447,-0.1471,-0.1472,-0.1521,-0.1521,-0.1538,0,0,0,-0.1234,-0.1215,-0.1255,-0.1241,-0.1306,-0.1365,-0.1335,-0.1407,-0.1417,-0.1447,-0.1471,-0.1473,-0.1521,-0.1521,-0.1537,-0.1515,0,0,0,-0.1205,-0.1212,-0.1225,-0.1239,-0.1293,-0.1365,-0.1382,-0.141,-0.1434,-0.147,-0.1473,-0.1521,-0.1521,-0.1536,-0.1515,-0.1456,0,0,0,-0.1175,-0.1224,-0.1224,-0.1289,-0.1292,-0.1372,-0.1382,-0.1446,-0.148,-0.1472,-0.1521,-0.1521,-0.1536,-0.1515,-0.1457,-0.1308,-0.1292,0,0,-0.1228,-0.1229,-0.1272,-0.1276,-0.1362,-0.1356,-0.1429,-0.1477,-0.1476,-0.1493,-0.1495,-0.1537,-0.1515,-0.1456,-0.1321,-0.1303,0,0,0,-0.1284,-0.1305,-0.1334,-0.138,-0.1426,-0.144,-0.1489,-0.1488,-0.1512,-0.1498,-0.1537,-0.1521,-0.1484,-0.1397,-0.1384,-0.1522,-0.1522,-0.1522,-0.1522,-0.1302,-0.1341,-0.1393,-0.1436,-0.1473,-0.1507,-0.1514,-0.1512,-0.1536,-0.1537,-0.1536,-0.1502,-0.1412,-0.14,-0.1553,-0.1553,-0.1553,-0.1553,-0.1553,-0.1344,-0.1359,-0.1399,-0.1462,-0.1476,-0.1518,-0.1527,-0.1534,-0.1516,-0.154,-0.1503,-0.1421,-0.1385,-0.1554,-0.1554,-0.1554,-0.1554,-0.1553,-0.1553,-0.1321,-0.1327,-0.1369,-0.1423,-0.1456,-0.15,-0.1481,-0.1503,-0.1499,-0.1486,-0.1351,-0.1348,-0.1475,-0.1464,-0.1463,-0.1463,-0.1463,-0.1462,-0.1462,-0.1255,-0.1296,-0.1305,-0.1374,-0.1393,-0.1415,-0.1438,-0.1411,-0.134,-0.1325,-0.1323,-0.147,-0.1473,-0.1468,-0.1457,-0.1458,-0.1459,-0.1459,-0.1459,-0.1201,-0.1212,-0.1218,-0.1233,-0.1269,-0.1216,-0.1276,-0.1173,-0.115,-0.107,-0.1214,-0.1221,-0.1183,-0.1192,-0.1179,-0.1094,-0.1094,-0.1094,-0.1094,-0.113,-0.1149,-0.1108,-0.1101,-0.1098,-0.1107,-0.0949,-0.0895,-0.0903,-0.0899,-0.0908,-0.092,-0.0937,-0.0887,-0.0904,-0.0886,-0.0725,-0.0724,-0.0724,-0.1061,-0.1062,-0.1002,-0.1018,-0.1015,-0.0946,-0.0762,-0.062,-0.0601,-0.0715,-0.0908,-0.1056,-0.1098,-0.1117,-0.1062,-0.108,-0.1061,0,0]},{"header":{"parameterUnit":"m.s-1","parameterCategory":2,"la1":30.2992,"la2":30.254,"lo1":-89.0895,"lo2":-89.0443,"dy":0.0025,"dx":0.0025,"nx":19,"ny":19,"refTime":"2026-04-03T09:00:00:Z","depth":"2","parameterNumber":3,"parameterNumberName":"V-component_of_CURRENTS"},"data":[0,0,0,-0.0308,-0.0308,-0.0289,-0.0289,-0.0128,-0.0126,0,0,0,0,0,0,0,0,0,0,0,-0.0305,-0.0305,-0.0308,-0.0308,-0.0289,-0.0289,-0.0128,-0.0126,0,0,0,0,0,0,0,0,0,0,0,-0.0305,-0.0305,-0.0306,-0.0308,-0.0289,-0.0289,-0.0128,-0.0172,0,0,0,0,0,0,0,0,0,0,-0.0205,-0.023,-0.0305,-0.0306,-0.0308,-0.0289,-0.0289,-0.0175,-0.0169,-0.0104,0,-0.0112,0,-0.0125,-0.0114,-0.0114,0,0,0,-0.0287,-0.0236,-0.0235,-0.0306,-0.0308,-0.0289,-0.0292,-0.0172,-0.0165,-0.0095,-0.011,-0.0106,-0.0122,-0.0113,-0.0112,0.0022,0.0022,0,0,-0.0288,-0.0289,-0.0241,-0.0232,-0.0314,-0.0292,-0.0291,-0.017,-0.016,-0.011,-0.0102,-0.0119,-0.0112,-0.011,0.0022,0.0022,0,0,0,-0.0305,-0.029,-0.0295,-0.0237,-0.025,-0.0292,-0.0291,-0.0166,-0.0169,-0.0101,-0.0117,-0.0111,-0.0109,0.0022,0.0022,-0.0022,0,0,0,-0.0305,-0.0302,-0.0296,-0.0294,-0.0254,-0.0227,-0.029,-0.0177,-0.0165,-0.0118,-0.0111,-0.0107,0.0022,0.0022,-0.0021,-0.0043,0,0,0,-0.0304,-0.0302,-0.0305,-0.0295,-0.0298,-0.023,-0.0226,-0.0176,-0.0175,-0.0113,-0.0106,0.0022,0.0022,-0.0021,-0.0041,-0.0007,0,0,0,-0.0297,-0.0335,-0.0305,-0.0338,-0.0299,-0.0296,-0.0228,-0.0202,-0.0157,-0.011,0.0022,0.0022,-0.002,-0.004,-0.0006,0.0003,0.0002,0,0,-0.035,-0.0341,-0.036,-0.0334,-0.035,-0.0296,-0.027,-0.0181,-0.0124,-0.0005,-0.0002,-0.0022,-0.0041,-0.0006,0.0021,0.0019,0,0,0,-0.038,-0.0392,-0.0391,-0.0388,-0.0366,-0.0314,-0.024,-0.0186,-0.009,-0.01,-0.0003,-0.0013,0.001,0.0017,0.0016,0.0024,0.0024,0.0024,0.0024,-0.0439,-0.0428,-0.045,-0.0423,-0.0397,-0.0312,-0.0256,-0.0159,-0.0103,-0.0067,-0.0035,-0.0022,-0.0016,-0.0017,-0.0017,-0.0018,-0.0018,-0.0018,-0.0018,-0.0516,-0.0531,-0.0482,-0.0503,-0.0423,-0.0376,-0.0243,-0.0188,-0.0069,-0.0049,-0.0024,-0.0014,-0.002,-0.0021,-0.0021,-0.002,-0.002,-0.0019,-0.0019,-0.0562,-0.0569,-0.057,-0.0561,-0.0504,-0.0409,-0.0319,-0.0218,-0.0116,-0.0083,-0.0029,-0.0028,-0.0042,-0.0057,-0.0057,-0.0057,-0.0057,-0.0057,-0.0057,-0.0612,-0.0614,-0.0633,-0.0613,-0.0588,-0.0515,-0.036,-0.0277,-0.0147,-0.0068,-0.0067,-0.0034,-0.0033,-0.0042,-0.0056,-0.0056,-0.0056,-0.0056,-0.0056,-0.0677,-0.0668,-0.0702,-0.0697,-0.0642,-0.0571,-0.0444,-0.0261,-0.0161,-0.0098,-0.0039,-0.004,-0.0014,-0.0013,-0.002,-0.0027,-0.0027,-0.0027,-0.0027,-0.0704,-0.0709,-0.0737,-0.0735,-0.0694,-0.0592,-0.0438,-0.024,-0.0081,-0.0006,-0.0007,-0.0011,-0.0013,0.0013,0.0013,0.0008,0.0007,0.0007,0.0007,-0.0727,-0.0735,-0.0753,-0.0754,-0.0709,-0.0603,-0.0432,-0.0156,0.0039,0.0009,0.0002,-0.0025,-0.0035,-0.0037,0.0002,0.0003,-0.0006,0,0]}],[{"header":{"parameterUnit":"m.s-1","parameterCategory":2,"la1":30.2992,"la2":30.254,"lo1":-89.0895,"lo2":-89.0443,"dy":0.0025,"dx":0.0025,"nx":19,"ny":19,"refTime":"2026-04-03T09:00:00:Z","depth":"4","parameterNumber":2,"parameterNumberName":"U-component_of_CURRENTS"},"data":[0,0,0,-0.0813,-0.0814,-0.0816,-0.0816,-0.0789,-0.0789,0,0,0,0,0,0,0,0,0,0,0,-0.0809,-0.081,-0.0813,-0.0814,-0.0816,-0.0816,-0.0789,-0.0789,0,0,0,0,0,0,0,0,0,0,0,-0.0809,-0.081,-0.081,-0.0814,-0.0816,-0.0816,-0.0789,-0.0792,0,0,0,0,0,0,0,0,0,0,-0.0792,-0.0795,-0.0809,-0.081,-0.0814,-0.0816,-0.0816,-0.0792,-0.0792,-0.0783,0,-0.079,0,-0.0795,-0.0787,-0.0787,0,0,0,-0.0802,-0.0796,-0.0801,-0.081,-0.0814,-0.0816,-0.0812,-0.0792,-0.0791,-0.0782,-0.079,-0.0789,-0.0795,-0.0787,-0.0787,-0.0796,-0.0796,0,0,-0.0802,-0.0802,-0.0802,-0.0801,-0.0823,-0.0812,-0.0812,-0.0792,-0.0791,-0.079,-0.0789,-0.0794,-0.0787,-0.0787,-0.0796,-0.0796,0,0,0,-0.081,-0.0802,-0.0808,-0.0802,-0.0808,-0.0812,-0.0812,-0.0792,-0.0796,-0.0789,-0.0794,-0.0787,-0.0786,-0.0796,-0.0796,-0.0815,0,0,0,-0.0809,-0.0808,-0.0808,-0.0807,-0.0809,-0.0804,-0.0813,-0.0797,-0.0795,-0.0794,-0.0787,-0.0786,-0.0795,-0.0796,-0.0813,-0.081,0,0,0,-0.0808,-0.0807,-0.0811,-0.0808,-0.0815,-0.0805,-0.0807,-0.0797,-0.0799,-0.0787,-0.0786,-0.0795,-0.0796,-0.0812,-0.0809,-0.079,0,0,0,-0.0802,-0.0793,-0.0812,-0.0802,-0.0815,-0.0818,-0.0807,-0.0813,-0.0808,-0.0787,-0.0795,-0.0796,-0.0812,-0.0808,-0.079,-0.0696,0,0,0,-0.0782,-0.0791,-0.0783,-0.08,-0.0791,-0.0816,-0.0813,-0.081,-0.0812,-0.0797,-0.0797,-0.0814,-0.0809,-0.079,-0.0734,0,0,0,0,-0.0771,-0.0765,-0.0764,-0.0768,-0.0784,-0.0802,-0.081,-0.0815,-0.0824,-0.0814,-0.0821,-0.0818,-0.0805,-0.075,-0.0799,-0.0799,-0.0799,-0.0799,-0.0799,-0.0737,-0.0744,-0.0733,-0.0745,-0.0761,-0.0796,-0.0804,-0.0818,-0.0826,-0.0843,-0.0839,-0.0845,-0.079,-0.0851,-0.0851,-0.0852,-0.0852,-0.0852,-0.0852,-0.0691,-0.0674,-0.0712,-0.0707,-0.0751,-0.0774,-0.0804,-0.0824,-0.0834,-0.0852,-0.0839,-0.0782,-0.0854,-0.0853,-0.0853,-0.0853,-0.0853,-0.0853,-0.0852,-0.0639,-0.0634,-0.0655,-0.0675,-0.0722,-0.0773,-0.078,-0.082,-0.0843,-0.0849,-0.0784,-0.0845,-0.0835,-0.0853,-0.0853,-0.0853,-0.0853,-0.0853,-0.0853,-0.0575,-0.0594,-0.0596,-0.064,-0.0665,-0.0708,-0.0776,-0.0775,-0.0819,-0.0784,-0.086,-0.0844,-0.0844,-0.0834,-0.0852,-0.0852,-0.0852,-0.0852,-0.0852,-0.0473,-0.0519,-0.0505,-0.0522,-0.057,-0.0601,-0.0678,-0.07,-0.0696,-0.0677,-0.0733,-0.0739,-0.0715,-0.0717,-0.0702,-0.0681,-0.0679,-0.0678,0,-0.0417,-0.0434,-0.0422,-0.0418,-0.0435,-0.0514,-0.0515,-0.056,-0.0605,-0.0588,-0.0676,-0.0737,-0.0742,-0.0714,-0.0714,-0.0695,0,0,0,-0.0355,-0.0367,-0.0333,-0.0353,-0.0367,-0.0426,-0.0516,-0.0515,-0.0604,-0.059,-0.0649,-0.0656,-0.0766,-0.0848,-0.0824,-0.0824,-0.0806,0,0]},{"header":{"parameterUnit":"m.s-1","parameterCategory":2,"la1":30.2992,"la2":30.254,"lo1":-89.0895,"lo2":-89.0443,"dy":0.0025,"dx":0.0025,"nx":19,"ny":19,"refTime":"2026-04-03T09:00:00:Z","depth":"4","parameterNumber":3,"parameterNumberName":"V-component_of_CURRENTS"},"data":[0,0,0,-0.0292,-0.0294,-0.037,-0.037,-0.0423,-0.0423,0,0,0,0,0,0,0,0,0,0,0,-0.0265,-0.0265,-0.0292,-0.0294,-0.037,-0.037,-0.0423,-0.0423,0,0,0,0,0,0,0,0,0,0,0,-0.0264,-0.0265,-0.0266,-0.0294,-0.037,-0.037,-0.0423,-0.0377,0,0,0,0,0,0,0,0,0,0,-0.0308,-0.0289,-0.0265,-0.0266,-0.0294,-0.037,-0.037,-0.0375,-0.038,-0.0375,0,-0.0389,0,-0.0406,-0.0426,-0.0426,0,0,0,-0.0295,-0.0286,-0.0306,-0.0266,-0.0295,-0.037,-0.0336,-0.0378,-0.0383,-0.0381,-0.039,-0.0392,-0.0407,-0.0426,-0.0426,-0.0467,-0.0467,0,0,-0.0291,-0.0278,-0.0303,-0.0309,-0.0316,-0.0333,-0.0338,-0.0382,-0.0386,-0.039,-0.0394,-0.0408,-0.0426,-0.0426,-0.0467,-0.0467,0,0,0,-0.0278,-0.0275,-0.0296,-0.0307,-0.0324,-0.0336,-0.0341,-0.0385,-0.0391,-0.0394,-0.0409,-0.0426,-0.0427,-0.0466,-0.0467,-0.0492,0,0,0,-0.0275,-0.0268,-0.0294,-0.0287,-0.0323,-0.0361,-0.0343,-0.0389,-0.0394,-0.0408,-0.0426,-0.0427,-0.0466,-0.0466,-0.0491,-0.0486,0,0,0,-0.0261,-0.0266,-0.0276,-0.0286,-0.0319,-0.0361,-0.0371,-0.039,-0.0402,-0.0426,-0.0427,-0.0466,-0.0466,-0.049,-0.0485,-0.0433,0,0,0,-0.0244,-0.0296,-0.0275,-0.0337,-0.0318,-0.0387,-0.0371,-0.0426,-0.0453,-0.0427,-0.0466,-0.0467,-0.0489,-0.0484,-0.0434,-0.0381,0,0,0,-0.0308,-0.0303,-0.0342,-0.0326,-0.0403,-0.0377,-0.0437,-0.0463,-0.0451,-0.0448,-0.045,-0.0491,-0.0485,-0.0433,-0.0407,0,0,0,0,-0.0362,-0.0386,-0.0408,-0.0441,-0.047,-0.0471,-0.0491,-0.0485,-0.049,-0.0467,-0.0493,-0.0487,-0.0454,-0.0425,-0.0469,-0.0469,-0.0469,-0.0468,-0.0468,-0.0421,-0.044,-0.0497,-0.0516,-0.054,-0.0545,-0.0547,-0.0532,-0.0526,-0.0525,-0.051,-0.0491,-0.0465,-0.052,-0.052,-0.052,-0.0521,-0.0521,-0.0521,-0.0504,-0.053,-0.0536,-0.0598,-0.0582,-0.0609,-0.0586,-0.0573,-0.0531,-0.0535,-0.0501,-0.0459,-0.0523,-0.0523,-0.0522,-0.0522,-0.0522,-0.0522,-0.0522,-0.0531,-0.0543,-0.0577,-0.0624,-0.0639,-0.0632,-0.0605,-0.0582,-0.0541,-0.052,-0.0432,-0.0482,-0.0474,-0.048,-0.048,-0.048,-0.048,-0.048,-0.0479,-0.0532,-0.0565,-0.0603,-0.0647,-0.0661,-0.0654,-0.0603,-0.0552,-0.0496,-0.0435,-0.0497,-0.0475,-0.0477,-0.047,-0.0476,-0.0477,-0.0477,-0.0477,-0.0478,-0.0557,-0.0564,-0.0619,-0.0644,-0.0665,-0.0646,-0.0612,-0.0468,-0.039,-0.0314,-0.0378,-0.0384,-0.0353,-0.0356,-0.0344,-0.0313,-0.0312,-0.0311,0,-0.0549,-0.0564,-0.0614,-0.0642,-0.0637,-0.0631,-0.0506,-0.0427,-0.0346,-0.0349,-0.0399,-0.0478,-0.048,-0.0455,-0.0456,-0.0447,0,0,0,-0.0544,-0.0563,-0.0587,-0.0626,-0.062,-0.0515,-0.0466,-0.0403,-0.0382,-0.0263,-0.0293,-0.0298,-0.042,-0.0466,-0.043,-0.0432,-0.0418,0,0]}]]